Regional Weather Roundup
Issued by NWS

Home | Current Version | Previous Version | Text Only | Print | Product List | Glossary On
Versions: 1 2 3 4 5 6 7 8 9 10 11 12 13 14 15 16 17 18 19 20 21 22 23 24 25 26 27 28 29 30 31 32 33 34 35 36 37 38 39 40 41 42 43 44 45 46 47 48 49 50
818
ASUS43 KLMK 021710
RWRKY
KENTUCKY REGIONAL WEATHER ROUNDUP
NATIONAL WEATHER SERVICE LOUISVILLE KY
100 PM EDT MON MAY 02 2016

NOTE "FAIR" INDICATES FEW OR NO CLOUDS BELOW 12,000 FEET
WITH NO SIGNIFICANT WEATHER AND/OR OBSTRUCTIONS TO VISIBILITY.

KYZ001>023-026-027-061>063-070>075-021800-
WESTERN AND SOUTH CENTRAL KENTUCKY

CITY           SKY/WX    TMP DP  RH WIND       PRES   REMARKS
PADUCAH        CLOUDY    64  51  62 W6        30.03S
HENDERSON      CLOUDY    63  52  67 W10       30.01F
OWENSBORO      CLOUDY    63  52  67 W6        30.00F
HOPKINSVILLE   LGT RAIN  55  55 100 SE8       30.01F
BOWLING GREEN  TSTM      59  56  89 CALM      30.02R FOG
GLASGOW        RAIN      58  58 100 N3        30.01R
$$

KYZ024-025-028>034-038-045-046-053-021800-
NORTH CENTRAL KENTUCKY

CITY           SKY/WX    TMP DP  RH WIND       PRES   REMARKS
LOUISVILLE/SDF CLOUDY    65  53  65 S7        29.97S
LOUISVILLE/LOU CLOUDY    64  53  67 S7        29.99R
FORT KNOX      CLOUDY    62  55  75 VRB2      29.95F
$$

KYZ035>037-039>044-047>052-055>060-089>105-021800-
NORTHEAST KENTUCKY

CITY           SKY/WX    TMP DP  RH WIND       PRES   REMARKS
LEXINGTON      CLOUDY    68  52  56 SW8       29.99R
COVINGTON      CLOUDY    64  52  64 VRB6      29.96R
FRANKFORT      CLOUDY    68  54  60 SW9       29.98R
$$

KYZ054-064>069-076>088-106>120-021800-
SOUTHEAST KENTUCKY

CITY           SKY/WX    TMP DP  RH WIND       PRES   REMARKS
JACKSON        CLOUDY    69  63  81 CALM      29.96F
LONDON         CLOUDY    69  63  81 CALM      29.97F
SOMERSET       TSTM      64  64 100 CALM      29.99F
MIDDLESBORO    CLOUDY    73  63  69 S5        29.98F
MONTICELLO     CLOUDY    67  64  90 NW5       30.00F
$$





USA.gov is the U.S. government's official web portal to all federal, state and local government web resources and services.